Location: The Saddle
(36.8333°N, 80.3417°W)
Time: 18:35:48
(UTC-05:00)

A-11 Canister half - Pass Details

Date: 18 December 2023
Orbit: 1526 x 1682 km, 47.3° (Epoch: 25 February)

Event Time Altitude Azimuth Distance (km) Brightness Sun altitude
Rises 16:18:19 0° 249° (WSW) 4,865 13.4 7.4°
Reaches altitude 10° 16:21:28 10° 252° (WSW) 3,896 12.9 6.9°
Maximum altitude 16:31:27 67° 334° (NNW) 1,790 9.5 5.2°
Drops below altitude 10° 16:41:36 10° 57° (ENE) 3,945 10.5 3.6°
Sets 16:44:49 0° 60° (ENE) 4,928 10.9 3.0°
